GW5962 Weather Reports


time (UTC)temp
C
wind
direction
speed
KPH
gust
KPH
rain 1hr
cm
rain 24hr
cm
rain mn
cm
humidity
%
barometer
mb
20260507201102 30 0.0 0.0 0.00 0.00 0.00 44 1010.7
20260507200039 30 0.0 0.0 0.00 0.00 0.00 44 1010.8
20260507195036 30 0.0 0.0 0.00 0.00 0.00 43 1010.8
20260507194033 30 0.0 0.0 0.00 0.00 0.00 43 1010.9
20260507193051 30 0.0 1.6 0.00 0.00 0.00 43 1011.2
20260507192028 30 0.0 0.0 0.00 0.00 0.00 43 1011.1
20260507191025 31 0.0 0.0 0.00 0.00 0.00 43 1011.1
20260507190022 31 0.0 0.0 0.00 0.00 0.00 42 1010.9
20260507185020 31 0.0 0.0 0.00 0.00 0.00 42 1010.9
20260507184017 31 0.0 0.0 0.00 0.00 0.00 42 1011.1
20260507183134 31 0.0 1.6 0.00 0.00 0.00 42 1011.0
20260507182111 31 0.0 0.0 0.00 0.00 0.00 42 1011.0
20260507181109 31 0.0 0.0 0.00 0.00 0.00 42 1010.7
20260507180126 31 135 0.0 6.4 0.00 0.00 0.00 42 1010.7
20260507175103 31 0.0 0.0 0.00 0.00 0.00 42 1010.9
20260507174100 32 0.0 1.6 0.00 0.00 0.00 39 1010.7
20260507173058 32 0.0 1.6 0.00 0.00 0.00 40 1010.7
20260507172055 32 0.0 1.6 0.00 0.00 0.00 41 1010.9
20260507171052 32 0.0 0.0 0.00 0.00 0.00 42 1010.8
20260507170049 32 0.0 1.6 0.00 0.00 0.00 39 1010.8
20260507165046 32 135 0.0 8.0 0.00 0.00 0.00 39 1010.8
20260507164103 33 0.0 3.2 0.00 0.00 0.00 38 1011.1
20260507163041 33 0.0 6.4 0.00 0.00 0.00 39 1011.3
20260507162038 32 0.0 3.2 0.00 0.00 0.00 40 1011.6
20260507161035 32 135 0.0 6.4 0.00 0.00 0.00 40 1012.0
20260507160032 32 0.0 0.0 0.00 0.00 0.00 40 1012.2
20260507155049 32 0.0 0.0 0.00 0.00 0.00 41 1012.4
20260507154027 32 0.0 3.2 0.00 0.00 0.00 41 1012.8
20260507153024 32 0.0 0.0 0.00 0.00 0.00 43 1012.9
20260507152041 32 0.0 3.2 0.00 0.00 0.00 45 1013.1
20260507151018 31 0.0 4.8 0.00 0.00 0.00 44 1013.4
20260507150015 31 0.0 3.2 0.00 0.00 0.00 45 1013.9
20260507145113 31 0.0 1.6 0.00 0.00 0.00 45 1014.2
20260507144130 31 0.0 1.6 0.00 0.00 0.00 48 1014.3
20260507143108 31 0.0 4.8 0.00 0.00 0.00 49 1014.6
20260507142125 31 0.0 1.6 0.00 0.00 0.00 49 1015.1
20260507141102 30 0.0 1.6 0.00 0.00 0.00 50 1015.3
20260507140119 30 0.0 1.6 0.00 0.00 0.00 51 1015.6
20260507135056 30 0.0 1.6 0.00 0.00 0.00 52 1016.0
20260507134053 30 0.0 1.6 0.00 0.00 0.00 53 1016.4
20260507133051 30 0.0 0.0 0.00 0.00 0.00 54 1016.7
20260507132048 30 0.0 1.6 0.00 0.00 0.00 55 1017.0
20260507131045 29 0.0 0.0 0.00 0.00 0.00 57 1017.1
20260507130042 28 0.0 0.0 0.00 0.00 0.00 59 1017.2
20260507125039 29 0.0 0.0 0.00 0.00 0.00 58 1017.5
20260507124036 28 0.0 0.0 0.00 0.00 0.00 63 1017.6
20260507123034 26 0.0 0.0 0.00 0.00 0.00 69 1017.6
20260507122031 27 0.0 0.0 0.00 0.00 0.00 67 1017.4
20260507121028 26 0.0 0.0 0.00 0.00 0.00 67 1017.3
20260507120025 26 0.0 0.0 0.00 0.00 0.00 67 1017.4
20260507115043 26 0.0 0.0 0.00 0.00 0.00 67 1017.5
20260507114020 26 0.0 0.0 0.00 0.00 0.00 69 1017.8
20260507113037 26 0.0 0.0 0.00 0.00 0.00 66 1017.9
20260507112114 26 0.0 0.0 0.00 0.00 0.00 66 1017.8
20260507111131 26 0.0 0.0 0.00 0.00 0.00 67 1017.7
20260507110109 26 0.0 0.0 0.00 0.00 0.00 68 1017.6
20260507105106 25 0.0 0.0 0.00 0.00 0.00 70 1017.5
20260507104103 25 0.0 0.0 0.00 0.00 0.00 71 1017.5
20260507103101 24 0.0 0.0 0.00 0.00 0.00 72 1017.5
20260507102058 23 0.0 0.0 0.00 0.00 0.00 73 1017.5
20260507101055 23 0.0 0.0 0.00 0.00 0.00 73 1017.7
20260507100052 23 0.0 0.0 0.00 0.00 0.00 74 1017.8
20260507095049 23 0.0 0.0 0.00 0.00 0.00 75 1017.8
20260507094047 23 0.0 0.0 0.00 0.00 0.00 75 1017.9
20260507093043 23 0.0 0.0 0.00 0.00 0.00 75 1017.9
20260507092041 23 0.0 0.0 0.00 0.00 0.00 75 1017.7
20260507091038 23 0.0 0.0 0.00 0.00 0.00 76 1017.7
20260507090035 22 0.0 0.0 0.00 0.00 0.00 77 1017.6
20260507085033 22 0.0 0.0 0.00 0.00 0.00 77 1017.6
20260507084030 22 0.0 0.0 0.00 0.00 0.00 77 1017.8
20260507083027 23 0.0 0.0 0.00 0.00 0.00 75 1017.7
20260507082024 23 0.0 0.0 0.00 0.00 0.00 75 1017.9
20260507081021 23 0.0 1.6 0.00 0.00 0.00 74 1017.7
20260507080019 23 0.0 0.0 0.00 0.00 0.00 74 1017.8
20260507075016 23 0.0 0.0 0.00 0.00 0.00 73 1017.8
20260507074113 23 0.0 0.0 0.00 0.00 0.00 74 1017.9
20260507073130 23 0.0 0.0 0.00 0.00 0.00 75 1017.9
20260507072108 23 0.0 0.0 0.00 0.00 0.00 75 1018.1
20260507071105 23 0.0 0.0 0.00 0.00 0.00 75 1018.2
20260507065059 24 0.0 0.0 0.00 0.00 0.00 73 1018.3
20260507064056 24 0.0 0.0 0.00 0.00 0.00 73 1018.5
20260507063054 24 0.0 0.0 0.00 0.00 0.00 73 1018.8
20260507062051 24 0.0 0.0 0.00 0.00 0.00 72 1019.0
20260507061048 24 0.0 0.0 0.00 0.00 0.00 72 1019.1
20260507060106 24 0.0 0.0 0.00 0.00 0.00 72 1019.3
20260507055102 24 0.0 0.0 0.00 0.00 0.00 73 1019.2
20260507054040 24 0.0 0.0 0.00 0.00 0.00 73 1019.5
20260507053037 24 0.0 0.0 0.00 0.00 0.00 75 1019.6
20260507052054 24 0.0 0.0 0.00 0.00 0.00 75 1019.8
20260507051051 24 0.0 0.0 0.00 0.00 0.00 76 1020.0
20260507050028 24 0.0 0.0 0.00 0.00 0.00 77 1020.0
20260507045025 24 0.0 0.0 0.00 0.00 0.00 77 1020.1
20260507044023 24 0.0 0.0 0.00 0.00 0.00 77 1020.3
20260507043020 24 0.0 0.0 0.00 0.00 0.00 76 1020.4
20260507042018 23 0.0 0.0 0.00 0.00 0.00 80 1020.6
20260507041135 23 0.0 0.0 0.00 0.00 0.00 81 1020.8
20260507040112 23 0.0 0.0 0.00 0.00 0.00 81 1021.0
20260507035109 23 0.0 0.0 0.00 0.00 0.00 81 1021.0
20260507034106 24 0.0 0.0 0.00 0.00 0.00 80 1021.2
20260507033123 24 0.0 0.0 0.00 0.00 0.00 78 1021.3
20260507032120 24 0.0 0.0 0.00 0.00 0.00 78 1021.4
20260507031058 24 0.0 0.0 0.00 0.00 0.00 78 1021.4
20260507030115 25 0.0 0.0 0.00 0.00 0.00 78 1021.6
20260507025052 25 0.0 0.0 0.00 0.00 0.00 77 1021.7
20260507024050 25 0.0 0.0 0.00 0.00 0.00 78 1021.9
20260507023047 25 0.0 0.0 0.00 0.00 0.00 77 1022.0
20260507022104 25 0.0 0.0 0.00 0.00 0.00 78 1022.0
20260507021041 25 0.0 0.0 0.00 0.00 0.00 79 1022.0
20260507020038 25 0.0 0.0 0.00 0.00 0.00 81 1022.0
20260507015035 25 0.0 0.0 0.00 0.00 0.00 83 1022.2
20260507014033 24 0.0 0.0 0.00 0.00 0.00 85 1022.4
20260507013030 24 0.0 0.0 0.00 0.00 0.00 85 1022.4
20260507012027 25 0.0 0.0 0.00 0.00 0.00 84 1022.5
20260507011025 25 0.0 0.0 0.00 0.00 0.00 84 1022.7
20260507010022 25 0.0 0.0 0.00 0.00 0.00 83 1022.7
20260507005019 25 0.0 0.0 0.00 0.00 0.00 83 1022.7
20260507004016 25 0.0 0.0 0.00 0.00 0.00 83 1022.8
20260507003113 25 0.0 1.6 0.00 0.00 0.00 82 1022.8
20260507002111 25 0.0 0.0 0.00 0.00 0.00 82 1023.0
20260507001108 25 0.0 0.0 0.00 0.00 0.00 83 1023.1
20260507000105 25 0.0 0.0 0.00 0.00 0.00 83 1023.1
20260506235122 25 0.0 0.0 0.00 0.00 0.00 83 1023.1
20260506234059 25 0.0 0.0 0.00 0.00 0.00 81 1023.0
20260506233057 25 0.0 0.0 0.00 0.00 0.00 81 1023.1
20260506232114 25 0.0 0.0 0.00 0.00 0.00 81 1023.1
20260506231051 26 0.0 0.0 0.00 0.00 0.00 81 1023.0
20260506230048 25 0.0 0.0 0.00 0.00 0.00 81 1023.0
20260506225105 25 0.0 0.0 0.00 0.00 0.00 81 1023.0
20260506224043 25 0.0 0.0 0.00 0.00 0.00 80 1022.9
20260506223040 25 0.0 0.0 0.00 0.00 0.00 80 1022.9
20260506222037 26 0.0 0.0 0.00 0.00 0.00 80 1022.9
20260506221034 26 0.0 0.0 0.00 0.00 0.00 80 1022.9
20260506220031 26 0.0 0.0 0.00 0.00 0.00 80 1023.0
20260506215029 26 0.0 0.0 0.00 0.00 0.00 79 1023.0
20260506214026 26 0.0 0.0 0.00 0.00 0.00 77 1022.9
20260506213023 26 0.0 0.0 0.00 0.00 0.00 76 1022.9
20260506212021 27 0.0 0.0 0.00 0.00 0.00 75 1022.9
20260506211017 27 0.0 3.2 0.00 0.00 0.00 75 1022.8
20260506210115 27 0.0 0.0 0.00 0.00 0.00 69 1022.7
20260506205112 28 0.0 0.0 0.00 0.00 0.00 67 1022.8
20260506204109 28 0.0 0.0 0.00 0.00 0.00 64 1022.6
20260506203107 30 0.0 0.0 0.00 0.00 0.00 63 1022.8
20260506202104 31 0.0 0.0 0.00 0.00 0.00 60 1022.8